Hourly Data Report for December 04, 2021

VICTORIA UNIVERSITY CS
BRITISH COLUMBIA
Current Station Operator: ECCC - MSC

48°27'25.200" N
123°18'16.600" W
60.10 m
1018598
71783
WYJ

Download Data

Hourly Data (December 2021)
Hourly Data Report for December 4, 2021
TIME
LST
Temp Definition
°C
Dew Point Definition
°C
Rel Hum Definition
%
Precip. Amount Definition
mm

Wind Dir Definition
10's deg

Wind Spd Definition
km/h
Visibility Definition
km
Stn Press Definition
kPa
Hmdx Definition


Wind Chill Definition


Weather Definition


00:00 4.0 -0.3 74 0.0 33 6   101.26     LegendNANA
01:00 4.1 0.3 76 0.0 36 4   101.10     LegendNANA
02:00 4.1 0.4 77 0.0 36 8   101.09     LegendNANA
03:00 3.7 1.5 85 0.0 35 9   101.05     LegendNANA
04:00 3.0 2.4 96 0.0 34 8   101.05     LegendNANA
05:00 2.0 1.9 100 1.4 31 9   101.06     LegendNANA
06:00 1.2 1.2 100 1.3 33 9   101.04     LegendNANA
07:00 1.7 1.5 98 0.3 35 8   101.02     LegendNANA
08:00 2.0 1.7 98 0.0 33 8   101.09     LegendNANA
09:00 2.3 2.0 98 0.0 34 5   101.12     LegendNANA
10:00 2.8 2.2 96 0.2 33 6   101.17     LegendNANA
11:00 3.2 2.4 94 0.0 33 4   101.23     LegendNANA
12:00 3.5 2.6 94 0.0 36 7   101.26     LegendNANA
13:00 3.6 2.7 93 0.0 35 6   101.27     LegendNANA
14:00 3.8 3.0 95 0.0 35 7   101.29     LegendNANA
15:00 4.2 2.5 88 0.0 33 6   101.40     LegendNANA
16:00 3.1 2.1 93 0.0 27 3   101.51     LegendNANA
17:00 1.3 1.3 100 0.0 26 5   101.59     LegendNANA
18:00 1.1 1.0 100 0.0 28 5   101.64     LegendNANA
19:00 0.3 0.3 100 0.0 26 4   101.68     LegendNANA
20:00 1.5 0.9 96 0.0 27 6   101.82     LegendNANA
21:00 1.4 0.8 96 0.0 27 5   101.92     LegendNANA
22:00 1.1 0.3 95 0.0 29 5   101.99     LegendNANA
23:00 0.0 -0.4 97 0.0 0 1   102.09   0 LegendNANA

Notes on Data Quality.

Legend

  • E = Estimated
  • M = Missing
  • NA = Not Available*
  • [empty] = Indicates an unobserved value
Date modified: